TimeEDT,TemperatureF,Dew PointF,Humidity,Sea Level PressureIn,VisibilityMPH,Wind Direction,Wind SpeedMPH,Gust SpeedMPH,PrecipitationIn,Events,Conditions,WindDirDegrees,DateUTC
12:54 AM,41.0,37.0,86,30.01,10.0,Calm,Calm,-,N/A,,Clear,0,2013-06-03 04:54:00
1:54 AM,39.0,37.0,93,30.02,10.0,West,3.5,-,N/A,,Clear,260,2013-06-03 05:54:00
2:54 AM,39.0,36.0,89,30.02,10.0,West,4.6,-,N/A,,Clear,260,2013-06-03 06:54:00
3:54 AM,37.9,35.1,89,30.01,10.0,West,3.5,-,N/A,,Clear,260,2013-06-03 07:54:00
4:54 AM,37.0,35.1,93,30.02,10.0,Calm,Calm,-,N/A,,Clear,0,2013-06-03 08:54:00
5:54 AM,37.0,34.0,89,30.02,10.0,West,5.8,-,N/A,,Clear,270,2013-06-03 09:54:00
6:54 AM,39.0,35.1,86,30.04,10.0,West,6.9,-,N/A,,Clear,260,2013-06-03 10:54:00
7:54 AM,43.0,36.0,76,30.04,10.0,West,8.1,-,N/A,,Clear,270,2013-06-03 11:54:00
8:54 AM,46.9,36.0,66,30.04,10.0,West,5.8,-,N/A,,Clear,270,2013-06-03 12:54:00
9:54 AM,50.0,35.1,57,30.05,10.0,NW,15.0,19.6,N/A,,Clear,310,2013-06-03 13:54:00
10:54 AM,54.0,37.0,53,30.04,10.0,WNW,10.4,23.0,N/A,,Partly Cloudy,300,2013-06-03 14:54:00
11:54 AM,55.0,37.9,53,30.03,10.0,West,11.5,21.9,N/A,,Mostly Cloudy,270,2013-06-03 15:54:00
12:54 PM,59.0,37.0,44,30.03,10.0,NW,13.8,27.6,N/A,,Mostly Cloudy,320,2013-06-03 16:54:00
1:54 PM,59.0,35.1,41,30.01,10.0,NW,16.1,25.3,N/A,,Scattered Clouds,320,2013-06-03 17:54:00
2:54 PM,60.1,37.0,42,30.01,10.0,WNW,15.0,21.9,N/A,,Mostly Cloudy,300,2013-06-03 18:54:00
3:54 PM,60.1,36.0,41,30.01,10.0,WNW,10.4,25.3,N/A,,Scattered Clouds,300,2013-06-03 19:54:00
4:54 PM,61.0,37.0,41,30.01,10.0,WNW,12.7,25.3,N/A,,Scattered Clouds,290,2013-06-03 20:54:00
5:54 PM,61.0,28.9,30,30.02,10.0,NW,12.7,24.2,N/A,,Clear,320,2013-06-03 21:54:00
6:54 PM,60.1,32.0,35,30.02,10.0,NW,13.8,21.9,N/A,,Clear,320,2013-06-03 22:54:00
7:54 PM,57.9,33.1,39,30.04,10.0,NW,10.4,20.7,N/A,,Clear,310,2013-06-03 23:54:00
8:54 PM,55.0,32.0,42,30.05,10.0,WNW,9.2,-,N/A,,Clear,300,2013-06-04 00:54:00
9:54 PM,50.0,37.0,61,30.08,10.0,North,10.4,-,N/A,,Clear,350,2013-06-04 01:54:00
10:54 PM,46.0,36.0,68,30.11,10.0,NNW,8.1,-,N/A,,Clear,340,2013-06-04 02:54:00
11:54 PM,45.0,33.1,63,30.12,10.0,NW,3.5,-,N/A,,Clear,310,2013-06-04 03:54:00